Miscellaneous Local Product
Issued by NWS North Platte, NE

Home | Current Version | Previous Version | Text Only | Print | Product List | Glossary On
Versions: 1 2 3 4 5 6 7 8 9 10 11 12 13 14 15 16 17 18 19 20 21 22 23 24 25 26 27 28 29 30 31 32 33 34 35 36 37 38 39 40 41 42 43 44 45 46 47 48 49 50
000
AXUS43 KLBF 281510
MISLBF


WESTERN AND NORTH CENTRAL NEBRASKA HOURLY WEATHER ROUNDUP
NATIONAL WEATHER SERVICE NORTH PLATTE NE
900 AM CST WED JAN 28 2015

***STATIONS NOT REPORTING VARIABLES SUCH AS SKY/WEATHER OR
PRESSURE ARE PROVIDED BY THE NEBRASKA DEPARTMENT OF
ROADS...RAWS...AND APRS NETWORKS...AND ARE NOT UNDER
NATIONAL WEATHER SERVICE QUALITY CONTROL***

...OBSERVATIONS IN AND NEAR THE EASTERN PANHANDLE OF NEBRASKA...

CITY           SKY/WX    TMP DP  RH WIND       PRES   REMARKS
PINE RIDGE     PTCLDY    44  30  57 W9        29.88R
CHADRON        PTCLDY    44  32  62 W7        29.90R
ALLIANCE       PTCLDY    45  34  65 W24G30    29.91R
SIDNEY         PTCLDY    47  32  56 NW18G26   29.96R
WHITECLAY        N/A     46  29  51 W21         N/A
CRESCENT LAKE    N/A     48  33  55 W17G24      N/A
LISCO            N/A     47  32  55 W14         N/A
LEWELLEN         N/A     45  33  63 W16         N/A
$$

...OBSERVATIONS IN NORTH CENTRAL NEBRASKA...

CITY           SKY/WX    TMP DP  RH WIND       PRES   REMARKS
VALENTINE      MOCLDY    45  32  60 W13       29.77S
THEDFORD       MOCLDY    49  33  55 W14       29.81S
AINSWORTH      MOCLDY    48  32  54 W15G22    29.76S
O`NEILL        MOCLDY    38  32  78 S5        29.74F WCI  35
ORD            PTSUNNY   29  26  89 CALM      29.78F
BROKEN BOW     MOCLDY    48  33  56 W5        29.80R
BROWNLEE         N/A     51  33  50 W18         N/A
VALENTINE NWR    N/A     50  32  49 W16         N/A
SPRINGVIEW       N/A     35  32  89 W3          N/A
HALSEY           N/A     48  31  53 W8          N/A
BREWSTER         N/A     53  35  51 W15         N/A
ROSE             N/A     44  35  69 SW7         N/A
NEWPORT          N/A     47  33  60 W10         N/A
SARGENT          N/A     42  34  74 NW3         N/A
COMSTOCK         N/A     46  33  60 W6          N/A
CHAMBERS         N/A     38  31  74 CALM        N/A
EWING            N/A     33  31  94 S3          N/A
$$

...OBSERVATIONS IN SOUTHWEST NEBRASKA AND FAR NORTHEAST COLORADO...

CITY           SKY/WX    TMP DP  RH WIND       PRES   REMARKS
WRAY           FAIR      37  32  81 SW8       29.96R WCI  31
HOLYOKE        FAIR      52  32  46 NW15G21   29.94S
IMPERIAL       MOCLDY    42  31  64 NW9       29.91S
OGALLALA       MOCLDY    50  35  56 NW24G36   29.89R
NORTH PLATTE   MOCLDY    34  29  82 NW5       29.86S WCI  30
MCCOOK         PTSUNNY   47  34  60 NW12      29.88R
LEXINGTON      MOSUNNY   41  33  73 W15       29.83S
BRADY            N/A     37  30  77 CALM        N/A
GOTHENBURG       N/A     42  32  67 W6          N/A
CALLAWAY         N/A     47  35  64 W14         N/A
$$

...NORTH PLATTE AREA...

CITY           SKY/WX    TMP DP  RH WIND       PRES   REMARKS
AIRPORT        MOCLDY    34  29  82 NW5       29.86S WCI  30
DOWNTOWN         N/A     45  33  63 W3          N/A
$$

...SOME WEATHER OBSERVATIONS FROM AROUND THE REGION...

CITY           SKY/WX    TMP DP  RH WIND       PRES   REMARKS
DENVER         PTCLDY    52  18  26 W26G37    30.02F
LARAMIE        MOCLDY    37  25  61 W16       30.10R WCI  28
CHEYENNE       PTCLDY    40  28  62 W13       30.08R WCI  32
SCOTTSBLUFF      N/A    N/A N/A N/A MISG      29.97R
RAPID CITY     MOCLDY    52  28  39 NW18      29.82R
PIERRE         MOCLDY    31  30  96 W8        29.73R WCI  23
WINNER         FAIR      46  32  58 W12       29.73R
SIOUX FALLS    CLOUDY    33  30  88 S13G21    29.77F WCI  24
OMAHA          PTSUNNY   35  30  82 SE13      29.85F WCI  26
GRAND ISLAND   MOSUNNY   31  27  85 NW3       29.81R
KANSAS CITY    PTSUNNY   46  33  60 S15       29.91F
WICHITA        MOSUNNY   49  38  65 S15       29.89F
HAYS           PTSUNNY   45  28  53 NW12      29.85S
LIBERAL        CLOUDY    43  34  70 W13       29.95R
GOODLAND       CLOUDY    40  31  70 W14       29.97R WCI  32
$$



USA.gov is the U.S. government's official web portal to all federal, state and local government web resources and services.